When you browse on this site, cookies collect data to enhance your experience and personalize the content and advertising you see.
Visit our Privacy Policy to learn more. By continuing to use the site, you agree to this use of cookies and data.
  • Em Portugal
  • Lista de países
  • Para 7 dias
  • Temperatura da água
  • Mapa do tempo
  • Widgets de tempo
  • user-avatar
    Iniciar Sessão

    Previsão horária em Uy-Salgan

    Hoje, 21 Agosto, Quarta-feira

    Tempo Temperatura Precipitação Vento Pressão Humidade
    00:00 +26°C° 0 mm 3 m/s 753 mmHg 44%
    01:00 +25°C° 0 mm 3 m/s 753 mmHg 48%
    02:00 +25°C° 0 mm 3 m/s 754 mmHg 52%
    03:00 +24°C° 0 mm 3 m/s 754 mmHg 55%
    04:00 +24°C° 0 mm 3 m/s 753 mmHg 57%
    05:00 +24°C° 0 mm 3 m/s 753 mmHg 59%
    06:00 +24°C° 0 mm 3 m/s 753 mmHg 60%
    07:00 +26°C° 0 mm 3 m/s 753 mmHg 54%
    08:00 +28°C° 0 mm 4 m/s 753 mmHg 48%
    09:00 +30°C° 0 mm 4 m/s 753 mmHg 42%
    10:00 +33°C° 0 mm 4 m/s 753 mmHg 36%
    11:00 +35°C° 0 mm 5 m/s 753 mmHg 30%
    12:00 +37°C° 0 mm 5 m/s 752 mmHg 25%
    13:00 +39°C° 0 mm 5 m/s 752 mmHg 23%
    14:00 +40°C° 0 mm 5 m/s 751 mmHg 21%
    15:00 +41°C° 0 mm 5 m/s 751 mmHg 19%
    16:00 +40°C° 0 mm 6 m/s 751 mmHg 19%
    17:00 +39°C° 0 mm 6 m/s 751 mmHg 20%
    18:00 +38°C° 0 mm 6 m/s 750 mmHg 20%
    19:00 +34°C° 0 mm 6 m/s 751 mmHg 25%
    20:00 +32°C° 0 mm 5 m/s 751 mmHg 29%
    21:00 +29°C° 0 mm 5 m/s 751 mmHg 33%
    22:00 +28°C° 0 mm 4 m/s 751 mmHg 40%
    23:00 +27°C° 0 mm 4 m/s 751 mmHg 47%

    Amanhã, 22 Agosto, Quinta-feira

    Tempo Temperatura Precipitação Vento Pressão Humidade
    00:00 +25°C° 0 mm 4 m/s 750 mmHg 54%
    01:00 +25°C° 0 mm 4 m/s 750 mmHg 56%
    02:00 +25°C° 0 mm 4 m/s 750 mmHg 58%
    03:00 +24°C° 0 mm 3 m/s 750 mmHg 60%
    04:00 +24°C° 0 mm 3 m/s 750 mmHg 60%
    05:00 +24°C° 0 mm 3 m/s 750 mmHg 60%
    06:00 +24°C° 0 mm 3 m/s 750 mmHg 60%
    07:00 +27°C° 0 mm 3 m/s 750 mmHg 51%
    08:00 +29°C° 0 mm 4 m/s 750 mmHg 41%
    09:00 +33°C° 0 mm 5 m/s 751 mmHg 31%
    10:00 +35°C° 0 mm 5 m/s 750 mmHg 26%
    11:00 +38°C° 0 mm 6 m/s 750 mmHg 22%
    12:00 +40°C° 0 mm 6 m/s 750 mmHg 17%
    13:00 +40°C° 0 mm 7 m/s 750 mmHg 17%
    14:00 +41°C° 0 mm 8 m/s 749 mmHg 16%
    15:00 +42°C° 0 mm 9 m/s 749 mmHg 16%
    16:00 +40°C° 0 mm 8 m/s 749 mmHg 18%
    17:00 +38°C° 0 mm 8 m/s 749 mmHg 21%
    18:00 +35°C° 0 mm 7 m/s 749 mmHg 23%
    19:00 +33°C° 0 mm 6 m/s 750 mmHg 29%
    20:00 +30°C° 0 mm 6 m/s 750 mmHg 35%
    21:00 +28°C° 0 mm 5 m/s 751 mmHg 40%
    22:00 +28°C° 0 mm 4 m/s 751 mmHg 44%
    23:00 +27°C° 0 mm 4 m/s 751 mmHg 48%

    Depois de amanhã, 23 Agosto, Sexta-feira

    Tempo Temperatura Precipitação Vento Pressão Humidade
    00:00 +26°C° 0 mm 3 m/s 750 mmHg 52%
    01:00 +26°C° 0 mm 3 m/s 750 mmHg 53%
    02:00 +26°C° 0 mm 3 m/s 750 mmHg 55%
    03:00 +25°C° 0 mm 2 m/s 751 mmHg 57%
    04:00 +25°C° 0.4 mm 2 m/s 751 mmHg 58%
    05:00 +25°C° 0.4 mm 2 m/s 751 mmHg 60%
    06:00 +25°C° 0.4 mm 2 m/s 751 mmHg 61%
    07:00 +27°C° 0.1 mm 2 m/s 751 mmHg 56%
    08:00 +28°C° 0.1 mm 2 m/s 751 mmHg 50%
    09:00 +30°C° 0.1 mm 2 m/s 751 mmHg 45%
    10:00 +31°C° 0 mm 3 m/s 751 mmHg 40%
    11:00 +34°C° 0 mm 3 m/s 751 mmHg 35%
    12:00 +35°C° 0 mm 4 m/s 750 mmHg 30%
    13:00 +37°C° 0 mm 4 m/s 750 mmHg 27%
    14:00 +38°C° 0 mm 4 m/s 750 mmHg 24%
    15:00 +40°C° 0 mm 4 m/s 750 mmHg 22%
    16:00 +38°C° 0 mm 4 m/s 750 mmHg 24%
    17:00 +37°C° 0 mm 4 m/s 750 mmHg 27%
    18:00 +36°C° 0 mm 4 m/s 750 mmHg 29%
    19:00 +34°C° 0 mm 4 m/s 750 mmHg 33%
    20:00 +32°C° 0 mm 4 m/s 751 mmHg 37%
    21:00 +29°C° 0 mm 4 m/s 751 mmHg 41%
    22:00 +28°C° 0 mm 3 m/s 751 mmHg 44%
    23:00 +28°C° 0 mm 3 m/s 751 mmHg 47%

    24 Agosto, Sábado

    Tempo Temperatura Precipitação Vento Pressão Humidade
    00:00 +27°C° 0 mm 2 m/s 751 mmHg 50%
    01:00 +26°C° 0 mm 2 m/s 751 mmHg 52%
    02:00 +26°C° 0 mm 2 m/s 751 mmHg 55%
    03:00 +25°C° 0 mm 2 m/s 751 mmHg 57%
    04:00 +25°C° 0 mm 1 m/s 751 mmHg 58%
    05:00 +25°C° 0 mm 1 m/s 751 mmHg 59%
    06:00 +25°C° 0 mm 1 m/s 751 mmHg 60%
    07:00 +27°C° 0 mm 1 m/s 751 mmHg 55%
    08:00 +28°C° 0 mm 2 m/s 751 mmHg 50%
    09:00 +30°C° 0 mm 2 m/s 751 mmHg 44%
    10:00 +31°C° 0 mm 2 m/s 751 mmHg 40%
    11:00 +34°C° 0 mm 2 m/s 751 mmHg 37%
    12:00 +35°C° 0 mm 2 m/s 751 mmHg 33%
    13:00 +36°C° 0 mm 2 m/s 751 mmHg 30%
    14:00 +37°C° 0 mm 2 m/s 751 mmHg 27%
    15:00 +38°C° 0 mm 2 m/s 751 mmHg 24%
    16:00 +37°C° 0 mm 2 m/s 751 mmHg 26%
    17:00 +35°C° 0 mm 1 m/s 751 mmHg 28%
    18:00 +35°C° 0 mm 1 m/s 751 mmHg 31%
    19:00 +33°C° 0 mm 3 m/s 752 mmHg 38%
    20:00 +30°C° 0 mm 5 m/s 752 mmHg 46%
    21:00 +28°C° 0 mm 8 m/s 752 mmHg 54%
    22:00 +28°C° 0 mm 7 m/s 752 mmHg 55%
    23:00 +27°C° 0 mm 6 m/s 752 mmHg 55%

    25 Agosto, Domingo

    Tempo Temperatura Precipitação Vento Pressão Humidade
    00:00 +27°C° 0 mm 5 m/s 752 mmHg 56%
    01:00 +27°C° 0 mm 4 m/s 752 mmHg 55%
    02:00 +27°C° 0 mm 3 m/s 752 mmHg 54%
    03:00 +27°C° 0 mm 3 m/s 752 mmHg 53%
    04:00 +27°C° 0.5 mm 3 m/s 752 mmHg 58%
    05:00 +26°C° 0.5 mm 2 m/s 752 mmHg 62%
    06:00 +25°C° 0.5 mm 2 m/s 753 mmHg 67%
    07:00 +26°C° 0.3 mm 2 m/s 753 mmHg 65%
    08:00 +26°C° 0.3 mm 2 m/s 753 mmHg 63%
    09:00 +27°C° 0.3 mm 1 m/s 753 mmHg 60%
    10:00 +28°C° 0 mm 1 m/s 753 mmHg 57%
    11:00 +29°C° 0 mm 1 m/s 753 mmHg 54%
    12:00 +29°C° 0 mm 1 m/s 753 mmHg 51%
    13:00 +31°C° 0 mm 2 m/s 752 mmHg 46%
    14:00 +32°C° 0 mm 2 m/s 752 mmHg 40%
    15:00 +35°C° 0 mm 2 m/s 752 mmHg 35%
    16:00 +34°C° 0 mm 2 m/s 752 mmHg 35%
    17:00 +34°C° 0 mm 3 m/s 752 mmHg 35%
    18:00 +33°C° 0 mm 3 m/s 752 mmHg 36%
    19:00 +31°C° 0 mm 3 m/s 752 mmHg 38%
    20:00 +29°C° 0 mm 3 m/s 753 mmHg 40%
    21:00 +28°C° 0 mm 3 m/s 753 mmHg 42%
    22:00 +27°C° 0 mm 3 m/s 753 mmHg 49%
    23:00 +26°C° 0 mm 3 m/s 753 mmHg 56%

    26 Agosto, Segunda-feira

    Tempo Temperatura Precipitação Vento Pressão Humidade
    00:00 +25°C° 0 mm 3 m/s 752 mmHg 63%
    01:00 +24°C° 0 mm 2 m/s 752 mmHg 66%
    02:00 +24°C° 0 mm 2 m/s 752 mmHg 69%
    03:00 +23°C° 0 mm 1 m/s 752 mmHg 72%
    04:00 +23°C° 0 mm 1 m/s 752 mmHg 71%
    05:00 +24°C° 0 mm 1 m/s 752 mmHg 70%
    06:00 +24°C° 0 mm 1 m/s 753 mmHg 69%
    07:00 +25°C° 0 mm 1 m/s 753 mmHg 60%
    08:00 +27°C° 0 mm 2 m/s 753 mmHg 51%
    09:00 +29°C° 0 mm 2 m/s 753 mmHg 43%
    10:00 +31°C° 0 mm 3 m/s 753 mmHg 37%
    11:00 +33°C° 0 mm 3 m/s 754 mmHg 31%
    12:00 +35°C° 0 mm 4 m/s 754 mmHg 25%
    13:00 +35°C° 0 mm 5 m/s 754 mmHg 24%
    14:00 +36°C° 0 mm 5 m/s 754 mmHg 23%
    15:00 +36°C° 0 mm 6 m/s 754 mmHg 22%
    16:00 +35°C° 0 mm 5 m/s 754 mmHg 24%
    17:00 +34°C° 0 mm 5 m/s 754 mmHg 26%
    18:00 +34°C° 0 mm 4 m/s 755 mmHg 28%
    19:00 +32°C° 0 mm 4 m/s 755 mmHg 31%
    20:00 +30°C° 0 mm 4 m/s 756 mmHg 33%
    21:00 +28°C° 0 mm 4 m/s 756 mmHg 36%
    22:00 +27°C° 0 mm 4 m/s 756 mmHg 40%
    23:00 +27°C° 0 mm 3 m/s 756 mmHg 45%
    Mostrar mais